Resolute,

8:21 AM CDT on May 24, 2017 (GMT -0500)
Resolute

Weather History for CYRB - September, 2013

Change the Weather History Date:

Thursday, September 12, 2013

  Actual Average Record
Temperature  
Mean Temperature 21 °F -  
Max Temperature 23 °F 20 °F 39 °F (2002)
Min Temperature 19 °F 11 °F 15 °F (1996)
Degree Days  
Heating Degree Days 44    
Moisture  
Dew Point 20 °F    
Average Humidity 91    
Maximum Humidity 93    
Minimum Humidity 85    
Precipitation  
Precipitation 0.00 in 0.02 in - ()
Sea Level Pressure  
Sea Level Pressure 29.96 in    
Wind  
Wind Speed 19 mph ()    
Max Wind Speed 30 mph    
Max Gust Speed 29 mph    
Visibility 14.5 miles    
Events Rain , Snow    
Averages and records for this station are not official NWS values.
T = Trace of Precipitation, MM = Missing Value Source: Averaged Metar Reports

Daily Weather History Graph

Daily Weather History Graph

Search for Another Location

Airport or City:

Trip Planner

Search our weather history database for the weather conditions in past years. The results will help you decide how hot, cold, wet, or windy it might be!

Date:

Astronomy

Sep. 12, 2013 Rise Set
Actual Time 6:03 AM CDT 8:25 PM CDT
Civil Twilight 4:32 AM CDT 9:54 PM CDT
Nautical Twilight 1:48 AM CDT 12:43 AM CDT
Astronomical Twilight Sun does not set Sun does not set
Moon No Moon Rise No Moon Set
Length of Visible Light 17h 22m
Length of Day
14h 21m
Waxing Crescent, 50% of the Moon is Illuminated
Sep 12
Waxing Crescent
Sep 12
First Quarter
Sep 19
Full
Sep 26
Last Quarter
Oct 4
New

Hourly Weather History & Observations

Time (CDT) Temp. Windchill Dew Point Humidity Pressure Visibility Wind Dir Wind Speed Gust Speed Precip Events Conditions
12:00 AM 19.4 °F 2.5 °F 17.6 °F 93% 29.95 in 15.0 mi NW 23.0 mph - N/A Snow Light Snow Grains
1:00 AM 20 °F - 17 °F 85% 29.94 in 15 mi NW 25.3 mph - - Snow Snow Grains
1:00 AM 19.4 °F 2.5 °F 17.6 °F 93% 29.94 in 15.0 mi NNW 23.0 mph 28.8 mph N/A Snow Light Snow Grains
2:00 AM 19.4 °F 0.5 °F 17.6 °F 93% 29.97 in 15.0 mi NW 29.9 mph - N/A Snow Light Snow Grains
3:00 AM 19.4 °F 2.1 °F 17.6 °F 93% 29.96 in 15.0 mi NW 24.2 mph - N/A Snow Light Snow Grains
4:00 AM 21.2 °F 6.0 °F 19.4 °F 93% 29.97 in 15.0 mi NW 19.6 mph - N/A Snow Light Snow Grains
5:00 AM 23.0 °F 8.3 °F 19.4 °F 86% 29.98 in 15.0 mi NW 19.6 mph - N/A   Overcast
5:48 AM - - - N/A% - 10.0 mi NNW 23.0 mph 28.8 mph N/A   Light Freezing Drizzle
6:00 AM 23.0 °F 7.2 °F 21.2 °F 93% 29.97 in 10.0 mi NW 23.0 mph 28.8 mph N/A Snow Light Snow Grains
7:00 AM 22 °F - 20 °F 86% 29.96 in 15 mi NNW 27.6 mph - - Rain Light Freezing Rain
7:00 AM 23.0 °F 7.2 °F 19.4 °F 86% 29.96 in 15.0 mi NNW 23.0 mph 28.8 mph N/A Snow Low Drifting Snow
7:40 AM - - - N/A% - 15.0 mi NNW 19.6 mph - N/A Snow Light Snow Grains
8:00 AM 23.0 °F 8.0 °F 19.4 °F 86% 29.97 in 15.0 mi NNW 20.7 mph - N/A Snow Light Snow Grains
9:00 AM 23.0 °F 6.3 °F 19.4 °F 86% 29.97 in 15.0 mi NNW 26.5 mph - N/A Snow Light Snow Grains
10:00 AM 23.0 °F 9.6 °F 19.4 °F 86% 29.98 in 15.0 mi NW 16.1 mph 21.9 mph N/A Snow Light Snow Grains
11:00 AM 23.0 °F 7.6 °F 21.2 °F 93% 29.96 in 12.0 mi NW 21.9 mph - N/A Snow Light Snow Grains
12:00 PM 23.0 °F 8.7 °F 21.2 °F 93% 29.97 in 15.0 mi NNW 18.4 mph - N/A Snow Light Snow Grains
1:00 PM 23 °F - 20 °F 85% 29.98 in 15 mi NW 18.4 mph - - Snow Snow
1:00 PM 23.0 °F 8.7 °F 21.2 °F 93% 29.98 in 15.0 mi NW 18.4 mph - N/A Snow Light Snow Grains
2:00 PM 23.0 °F 8.3 °F 21.2 °F 93% 29.97 in 15.0 mi NW 19.6 mph - N/A Snow Light Snow Grains
3:00 PM 23.0 °F 8.3 °F 21.2 °F 93% 29.96 in 15.0 mi NW 19.6 mph - N/A Snow Light Snow Grains
4:00 PM 23.0 °F 10.6 °F 21.2 °F 93% 29.97 in 15.0 mi NW 13.8 mph - N/A Snow Light Snow Grains
4:31 PM - - - N/A% - 15.0 mi NW 16.1 mph - N/A Snow Light Snow Grains
5:00 PM 23.0 °F 9.2 °F 19.4 °F 86% 29.98 in 15.0 mi NW 17.3 mph - N/A Snow Light Snow Grains
5:37 PM - - - N/A% - 15.0 mi NW 17.3 mph - N/A Snow Light Snow Grains
6:00 PM 21.2 °F 6.8 °F 19.4 °F 93% 29.96 in 15.0 mi NW 17.3 mph - N/A Snow Light Snow Grains
7:00 PM 21.2 °F 7.8 °F 19.4 °F 93% 29.96 in 15.0 mi NNW 15.0 mph - N/A Snow Light Snow Grains
7:15 PM - - - N/A% - 10.0 mi NNW 16.1 mph - N/A   Light Freezing Drizzle
7:50 PM - - - N/A% - 15.0 mi NNW 15.0 mph - N/A Snow Light Snow Grains
8:00 PM 21.2 °F 6.8 °F 19.4 °F 93% 29.96 in 15.0 mi NNW 17.3 mph - N/A Snow Light Snow Grains
8:49 PM - - - N/A% - 15.0 mi NW 18.4 mph - N/A   Overcast
9:00 PM 21.2 °F 5.2 °F 19.4 °F 93% 29.96 in 15.0 mi NNW 21.9 mph - N/A   Overcast
10:00 PM 21.2 °F 6.8 °F 19.4 °F 93% 29.95 in 15.0 mi NNW 17.3 mph - N/A   Overcast
11:00 PM 21.2 °F 8.9 °F 19.4 °F 93% 29.94 in 15.0 mi NNW 12.7 mph - N/A   Overcast
11:26 PM - - - N/A% - 15.0 mi NW 23.0 mph - N/A Snow Light Snow Grains